[[{"header":{"parameterUnit":"m.s-1","parameterCategory":1,"la1":30.2991,"la2":30.254,"lo1":-89.0895,"lo2":-89.0444,"dy":0.0017,"dx":0.0017,"nx":28,"ny":28,"refTime":"2025-11-06T09:00:00:Z","depth":0,"parameterNumber":2,"parameterNumberName":"U-component_of_WINDS"},"data":[0,0,0,0,0,0,0,0,0,0,0,0,0,0,0,0,0,0,0,0,0,0,0,0,0,0,0,0,0,0,0,0,0,0,0,0,0,0,0,0,0,0,0,0,0,0,0,0,0,0,0,0,0,0,0,0,0,0,-1.8196,-1.8196,0,-1.824,-1.8241,-1.8241,-1.8192,-1.819,-1.8188,-1.8186,-1.8233,-1.8236,-1.8238,0,0,0,0,0,0,0,0,0,0,0,0,0,-1.8071,-1.8073,-1.8196,-1.8196,-1.8197,-1.824,-1.8241,-1.8241,-1.8192,-1.819,-1.8187,-1.8185,-1.8232,-1.8235,-1.8239,0,0,0,0,0,0,0,0,0,0,0,0,0,-1.8121,-1.8074,-1.8196,-1.8177,-1.8176,-1.824,-1.8241,-1.8241,-1.8192,-1.819,-1.8187,-1.8184,-1.823,-1.8235,-1.8239,-1.8323,0,0,-1.8253,-1.8255,0,0,0,0,0,0,0,0,-1.8118,-1.8126,-1.818,-1.8179,-1.8178,-1.8207,-1.8214,-1.8269,-1.8193,-1.8186,-1.8186,-1.8183,-1.8227,-1.8231,-1.8246,-1.8325,-1.8327,-1.8253,-1.8256,-1.8258,-1.8259,0,0,0,0,0,0,0,-1.8115,-1.8124,-1.8213,-1.818,-1.8179,-1.8168,-1.8172,-1.8224,-1.8222,-1.8187,-1.8183,-1.8189,-1.8226,-1.8242,-1.8246,-1.8328,-1.8253,-1.8257,-1.826,-1.8262,-1.8481,-1.8484,0,0,0,0,0,0,-1.8113,-1.8121,-1.8212,-1.8215,-1.814,-1.8172,-1.8177,-1.8201,-1.8221,-1.8221,-1.8192,-1.8187,-1.8235,-1.8241,-1.8248,-1.8349,-1.8258,-1.8262,-1.8265,-1.8478,-1.8482,-1.8485,0,0,0,0,0,0,-1.8111,-1.8122,-1.821,-1.8167,-1.8177,-1.8178,-1.8205,-1.8203,-1.8219,-1.8225,-1.8224,-1.8208,-1.8233,-1.8242,-1.8305,-1.835,-1.8264,-1.8268,-1.8475,-1.8479,-1.8484,-1.8551,0,0,0,0,0,0,-1.8107,-1.8121,-1.8152,-1.8168,-1.818,-1.8266,-1.8207,-1.8206,-1.8227,-1.8221,-1.824,-1.8241,-1.8232,-1.8299,-1.831,-1.8354,-1.8272,-1.8471,-1.8477,-1.8482,-1.8545,-1.8557,-1.8568,0,0,0,0,0,-1.8103,-1.8169,-1.8154,-1.8166,-1.8219,-1.8269,-1.8276,-1.8264,-1.8231,-1.8262,-1.8267,-1.824,-1.8343,-1.8306,-1.8318,-1.8364,-1.8468,-1.8475,-1.8482,-1.8539,-1.8555,-1.8568,0,0,0,0,0,0,-1.8159,-1.8171,-1.8154,-1.8227,-1.8248,-1.826,-1.83,-1.828,-1.831,-1.8303,-1.8288,-1.8293,-1.8361,-1.8369,-1.8327,-1.8448,-1.84,-1.841,-1.844,-1.8455,-1.8466,-1.8463,-1.8275,0,0,0,0,0,-1.818,-1.8219,-1.8227,-1.8291,-1.8302,-1.83,-1.8321,-1.831,-1.8331,-1.8339,-1.8347,-1.8368,-1.8406,-1.8431,-1.8465,-1.8546,-1.855,-1.8584,-1.8596,-1.8605,-1.8614,-1.8659,-1.8675,-1.8509,-1.8509,-1.8509,0,0,-1.8223,-1.8235,-1.826,-1.8303,-1.8317,-1.8359,-1.8307,-1.8353,-1.8384,-1.8346,-1.8407,-1.8414,-1.8437,-1.851,-1.8542,-1.8519,-1.8661,-1.8614,-1.8622,-1.8625,-1.8668,-1.8684,-1.8698,-1.8514,-1.8513,-1.8512,0,0,-1.8323,-1.8336,-1.8391,-1.8406,-1.8429,-1.8427,-1.8441,-1.8457,-1.846,-1.8521,-1.8494,-1.8531,-1.8596,-1.8613,-1.8631,-1.8741,-1.8718,-1.8753,-1.8814,-1.8858,-1.8871,-1.8883,-1.8923,-1.8937,-1.8761,-1.8761,-1.8762,0,-1.8374,-1.8435,-1.8422,-1.847,-1.849,-1.8458,-1.8515,-1.8531,-1.8564,-1.8579,-1.8552,-1.8633,-1.8646,-1.8724,-1.8751,-1.8766,-1.8782,-1.875,-1.887,-1.8882,-1.8892,-1.8931,-1.8946,-1.8765,-1.8765,-1.8765,-1.8764,0,-1.8498,-1.8541,-1.8583,-1.8616,-1.8641,-1.8693,-1.8688,-1.8716,-1.8704,-1.8705,-1.8769,-1.8783,-1.8821,-1.8839,-1.8827,-1.8916,-1.8901,-1.8872,-1.8824,-1.8912,-1.8948,-1.8963,-1.8771,-1.877,-1.8769,-1.8768,0,0,-1.8633,-1.8659,-1.8675,-1.869,-1.8713,-1.8747,-1.8799,-1.8836,-1.886,-1.8884,-1.8928,-1.8985,-1.8959,-1.8979,-1.8969,-1.9008,-1.9096,-1.8975,-1.8976,-1.8998,-1.9197,-1.9218,-1.9235,-1.9082,-1.9084,-1.9086,-1.9195,0,-1.8735,-1.8824,-1.8814,-1.8899,-1.894,-1.8911,-1.8956,-1.8976,-1.898,-1.9015,-1.9019,-1.906,-1.9022,-1.9035,-1.9072,-1.9078,-1.9136,-1.907,-1.9123,-1.9125,-1.9119,-1.9254,-1.9276,-1.9378,-1.9209,-1.9211,-1.9213,0,-1.8864,-1.8894,-1.8984,-1.9002,-1.9019,-1.906,-1.9094,-1.9128,-1.9151,-1.9151,-1.9175,-1.9159,-1.9212,-1.9164,-1.9238,-1.9193,-1.9215,-1.9221,-1.9225,-1.9229,-1.9175,-1.9263,-1.941,-1.9426,-1.9235,-1.9233,-1.9231,0,-1.8956,-1.9018,-1.908,-1.9094,-1.9117,-1.9147,-1.9158,-1.9178,-1.9202,-1.9232,-1.9247,-1.9284,-1.9304,-1.9333,-1.9328,-1.9292,-1.9404,-1.9354,-1.9407,-1.9407,-1.9431,-1.943,-1.9585,-1.9445,-1.9445,-1.9444,-1.9444,0,-1.907,-1.9126,-1.9121,-1.9159,-1.9222,-1.9211,-1.9274,-1.9281,-1.93,-1.934,-1.9318,-1.9356,-1.9347,-1.9385,-1.9382,-1.9445,-1.9454,-1.9456,-1.9455,-1.9459,-1.9459,-1.9473,-1.9466,-1.9448,-1.9447,-1.9447,-1.9446,0,-1.9182,-1.9181,-1.9247,-1.9264,-1.927,-1.9315,-1.9331,-1.9367,-1.937,-1.9421,-1.9433,-1.9436,-1.9481,-1.9479,-1.9529,-1.9527,-1.9605,-1.9595,-1.9597,-1.9595,-1.9648,-1.9644,-1.9818,-1.9841,-1.9685,-1.9687,-1.9688,0,-1.9255,-1.9298,-1.932,-1.9346,-1.9359,-1.94,-1.9424,-1.9415,-1.9442,-1.9472,-1.9506,-1.9549,-1.9582,-1.9655,-1.9663,-1.9702,-1.9693,-1.9751,-1.9698,-1.9702,-1.9695,-1.9693,-1.9698,-1.9762,-1.9763,-1.9765,-1.9766,0,-1.9386,-1.9384,-1.9419,-1.9456,-1.9485,-1.9513,-1.9539,-1.9561,-1.9556,-1.9587,-1.9632,-1.9658,-1.971,-1.9753,-1.9791,-1.9804,-1.9785,-1.9783,-1.9797,-1.9801,-1.9802,-1.9803,-1.9626,-1.9779,-1.9777,-1.9776,-1.9776,-1.9775,-1.9482,-1.9519,-1.9541,-1.9582,-1.9601,-1.9626,-1.9662,-1.9669,-1.9706,-1.9748,-1.9741,-1.9792,-1.9816,-1.9865,-1.9881,-1.9922,-1.9901,-1.9922,-1.9927,-1.9933,-1.9939,-1.9795,-1.9929,-1.9928,-1.9928,-1.9928,-1.9927,0,-1.9612,-1.9625,-1.9663,-1.97,-1.9733,-1.9712,-1.974,-1.9769,-1.9814,-1.9838,-1.9872,-1.9925,-1.9967,-1.9979,-2.002,-2.0051,-2.0044,-2.0062,-2.006,-2.0064,-1.9954,-1.9938,-2.0068,-2.0068,-2.0068,-2.0068,-2.0068,-2.0068,-1.9684,-1.9746,-1.9747,-1.9819,-1.9832,-1.9882,-1.99,-1.9924,-1.9943,-2.0003,-2.0038,-2.0046,-2.0065,-2.0108,-2.0146,-2.0149,-2.0166,-2.0188,-2.0187,-2.0085,-2.0071,-2.0058,-2.0043,-2.0192,-2.0192,-2.0293,-2.0294,-2.0295]},{"header":{"parameterUnit":"m.s-1","parameterCategory":1,"la1":30.2991,"la2":30.254,"lo1":-89.0895,"lo2":-89.0444,"dy":0.0017,"dx":0.0017,"nx":28,"ny":28,"refTime":"2025-11-06T09:00:00:Z","depth":0,"parameterNumber":3,"parameterNumberName":"V-component_of_WINDS"},"data":[0,0,0,0,0,0,0,0,0,0,0,0,0,0,0,0,0,0,0,0,0,0,0,0,0,0,0,0,0,0,0,0,0,0,0,0,0,0,0,0,0,0,0,0,0,0,0,0,0,0,0,0,0,0,0,0,0,0,1.5119,1.5119,0,1.5135,1.5136,1.5136,1.5148,1.5148,1.5148,1.5148,1.5163,1.5164,1.5164,0,0,0,0,0,0,0,0,0,0,0,0,0,1.5096,1.5096,1.5119,1.5119,1.5119,1.5135,1.5136,1.5136,1.5148,1.5148,1.5148,1.5148,1.5163,1.5164,1.5164,0,0,0,0,0,0,0,0,0,0,0,0,0,1.5108,1.5096,1.5119,1.5127,1.5128,1.5135,1.5136,1.5136,1.5148,1.5148,1.5148,1.5148,1.5163,1.5164,1.5164,1.5164,0,0,1.5165,1.5166,0,0,0,0,0,0,0,0,1.5108,1.5109,1.5126,1.5126,1.5127,1.514,1.5133,1.5145,1.5148,1.514,1.5148,1.5148,1.5155,1.5156,1.5159,1.5165,1.5165,1.5166,1.5166,1.5166,1.5166,0,0,0,0,0,0,0,1.5107,1.5108,1.5125,1.5126,1.5127,1.513,1.5131,1.5136,1.5146,1.5141,1.5142,1.5144,1.5156,1.5159,1.516,1.5166,1.5166,1.5166,1.5166,1.5166,1.5173,1.5173,0,0,0,0,0,0,1.5105,1.5108,1.5125,1.5126,1.5118,1.513,1.5132,1.5136,1.5147,1.5148,1.5143,1.5144,1.5158,1.5159,1.516,1.5161,1.5166,1.5166,1.5167,1.5173,1.5173,1.5173,0,0,0,0,0,0,1.5104,1.5106,1.5124,1.5117,1.512,1.513,1.5134,1.5136,1.5139,1.5149,1.515,1.5144,1.5158,1.5159,1.5163,1.5162,1.5167,1.5167,1.5173,1.5173,1.5173,1.5164,0,0,0,0,0,0,1.5103,1.5106,1.5106,1.5117,1.512,1.5127,1.5134,1.5136,1.514,1.5141,1.515,1.5152,1.5158,1.5163,1.5164,1.5163,1.5167,1.5173,1.5173,1.5173,1.5164,1.5163,1.5162,0,0,0,0,0,1.5103,1.5102,1.5106,1.5108,1.512,1.5127,1.5129,1.5137,1.514,1.514,1.5146,1.5151,1.5162,1.5163,1.5164,1.5164,1.5174,1.5173,1.5173,1.5165,1.5163,1.5163,0,0,0,0,0,0,1.509,1.5104,1.5108,1.5111,1.5118,1.5129,1.513,1.5135,1.5141,1.5141,1.515,1.5152,1.5155,1.516,1.516,1.5165,1.5169,1.5169,1.5162,1.5161,1.516,1.5158,1.5168,0,0,0,0,0,1.5088,1.5093,1.5104,1.5106,1.5109,1.5119,1.5122,1.5128,1.5135,1.5137,1.5144,1.515,1.5155,1.5158,1.5163,1.5165,1.5167,1.5165,1.5164,1.5164,1.5164,1.5165,1.5165,1.5172,1.5172,1.5172,0,0,1.5083,1.5091,1.5093,1.5103,1.5109,1.5114,1.5121,1.5125,1.5129,1.5138,1.5142,1.5147,1.5155,1.5158,1.516,1.5162,1.5162,1.5163,1.5163,1.5163,1.5165,1.5164,1.5164,1.5172,1.5172,1.5172,0,0,1.5076,1.5083,1.5085,1.5092,1.5101,1.5107,1.5108,1.5119,1.5123,1.5127,1.5135,1.5139,1.5147,1.5152,1.5156,1.5153,1.5157,1.5154,1.5149,1.5151,1.515,1.515,1.5149,1.5149,1.5154,1.5154,1.5154,0,1.5069,1.5076,1.5086,1.509,1.5094,1.5104,1.5107,1.5112,1.5122,1.5125,1.5127,1.5138,1.5144,1.5149,1.5148,1.5151,1.5152,1.5153,1.515,1.515,1.5149,1.5148,1.5148,1.5153,1.5153,1.5153,1.5153,0,1.5067,1.5072,1.5073,1.5084,1.5088,1.5091,1.5101,1.5105,1.511,1.5117,1.5122,1.5129,1.5136,1.5138,1.5142,1.5143,1.5144,1.5148,1.5152,1.5148,1.5147,1.5147,1.5152,1.5153,1.5153,1.5153,0,0,1.5052,1.5069,1.5069,1.5074,1.5086,1.509,1.5094,1.5101,1.5104,1.5111,1.5115,1.5122,1.5126,1.513,1.5136,1.5137,1.5135,1.5141,1.5142,1.514,1.5137,1.5134,1.5133,1.5138,1.5138,1.5138,1.5136,0,1.5047,1.5055,1.5065,1.507,1.5075,1.5084,1.5088,1.5095,1.5102,1.5106,1.5113,1.5118,1.5123,1.5126,1.5128,1.5135,1.5134,1.5135,1.5142,1.5142,1.5139,1.5133,1.5129,1.5127,1.5136,1.5136,1.5136,0,1.5042,1.505,1.5056,1.5068,1.507,1.5073,1.5082,1.5086,1.5095,1.5099,1.5105,1.5111,1.5116,1.512,1.5126,1.5126,1.513,1.5133,1.5134,1.5134,1.5138,1.5133,1.5126,1.5126,1.5135,1.5135,1.5135,0,1.5031,1.5043,1.5048,1.5052,1.5066,1.5068,1.5074,1.5083,1.5087,1.5094,1.5097,1.5104,1.5108,1.5114,1.5122,1.5124,1.5128,1.5132,1.5131,1.5131,1.5131,1.5131,1.5124,1.5133,1.5133,1.5133,1.5133,0,1.5025,1.5028,1.5044,1.5047,1.5051,1.5061,1.5065,1.5071,1.5079,1.5084,1.5092,1.5096,1.5107,1.5112,1.5119,1.5123,1.5125,1.5128,1.513,1.5128,1.5127,1.513,1.513,1.5133,1.5133,1.5133,1.5133,0,1.5013,1.5024,1.503,1.5043,1.5047,1.5049,1.506,1.5063,1.5071,1.5076,1.5078,1.5089,1.5096,1.5105,1.5114,1.5118,1.5122,1.5124,1.5119,1.512,1.5119,1.5119,1.5114,1.5114,1.5122,1.5122,1.5122,0,1.5008,1.5011,1.5025,1.503,1.5035,1.5042,1.5047,1.5057,1.5062,1.5073,1.5075,1.5082,1.5089,1.5098,1.5107,1.5114,1.5117,1.5115,1.5118,1.5116,1.5117,1.5117,1.5117,1.5114,1.5114,1.5113,1.5113,0,1.4999,1.5004,1.5012,1.5021,1.5027,1.5034,1.5042,1.5045,1.5057,1.5062,1.5069,1.5074,1.5084,1.5091,1.51,1.5105,1.5111,1.5112,1.5113,1.511,1.5107,1.5109,1.5117,1.5112,1.5112,1.5112,1.5113,1.5113,1.4991,1.4994,1.5005,1.5013,1.502,1.5027,1.5032,1.504,1.5047,1.5056,1.5062,1.5069,1.5078,1.509,1.5096,1.5101,1.5103,1.5104,1.5104,1.5104,1.5103,1.5106,1.5103,1.5103,1.5103,1.5103,1.5103,0,1.4982,1.499,1.4997,1.5008,1.5015,1.5021,1.503,1.5035,1.5041,1.505,1.5056,1.5065,1.5072,1.5082,1.509,1.5093,1.5096,1.5094,1.5094,1.5095,1.51,1.5099,1.5092,1.5092,1.5092,1.5092,1.5092,1.5092,1.4978,1.4985,1.4991,1.5001,1.5009,1.5017,1.5022,1.5029,1.5035,1.5045,1.5052,1.5058,1.5067,1.5076,1.5083,1.5086,1.5088,1.5086,1.5089,1.5094,1.5095,1.5096,1.5095,1.5087,1.5087,1.5084,1.5084,1.5084]}]]